Find Starlink 31688

NORAD ID: 59386 Int'l Des: 2024-062 Owner: SPXS Country: US Constellation: starlink operational
LEOCIRCULAR

实时位置

正在加载3D地球...

关于 Starlink 31688

正在加载描述...

即将过境

Passes for default location (London). Set your location on the main map for personalized predictions.

高度历史

Loading altitude history...

两行轨道根数

1 59386U 24062N 26125.77276417 -.00001454 00000-0 -37000-4 0 9992
2 59386 53.1628 353.1785 0001065 59.3543 300.7562 15.30175754118338
Epoch: May 5, 2026 • Age: 18 hours

当前状态

高度 494.2 km
速度 7.62 km/s
星下点 -52.43°S, 173.11°W
发射日期 Apr 2, 2024
运行时间 2 years
类型 internet

技术详情

分类 Payload
质量 730.00 kg
干质量 700.00 kg
总质量 730.00 kg
长度 0.30 m
直径 4.10 m
跨度 29.00 m
形状 Box + pan
制造商 SPXS
平台类型 Starlink V2M
阶段状态 In Orbit
所有者/国家 SPXS/US

Most Searched